Wind_Speed
23 23 23 23 22 21 21 20 18 19 20 20 20 21 22 23 23 23 23 22 22 22
21 21 21 21 21 20 18 17 17 20 21 21 21 22 23 23 22 23 23 22 23 24
23 25 20 21 19 18 18 18 19 20 21 21 21 22 23 22 22 22 21 21 23 19
19 18 19 18 17 18 18 17 18 20 21 22 22 22 22 22 20 20 20 20 20 18
22 20 18 16 14 15 17 17 19 20 20 22 22 21 22 21 21 20 20 20 19 19
19 17 17 15 14 14 16 17 19 20 21 21 21 19 20 20 20 19 18 18 18 17
17 15 14 13 13 15 16 17 19 19 20 20 19 18 19 19 18 18 18 17 16 15
16 15 14 14 15 16 16 17 18 18 19 20 20 19 19 18 19 18 16 15 15 14
19 16 14 15 15 16 17 17 17 16 16 16 16 17 18 17 16 14 12 11 10 10
18 17 15 15 16 16 16 16 15 14 15 14 15 15 13 12 10 9 9 9 10 10
20 18 16 16 15 17 17 15 14 13 13 14 14 13 12 8 9 10 10 11 11 8
21 18 17 17 17 18 17 14 13 13 12 13 12 12 10 8 9 10 9 9 8 6
20 19 19 18 19 19 17 14 14 13 13 13 12 11 10 9 9 9 9 8 9 7
20 19 19 19 21 19 16 15 13 13 14 14 12 11 11 10 9 9 9 9 9 8
Wind_Direction
232 233 230 231 226 234 245 256 266 273 279 280 281 279 278 278 277 276 275 274 273 273
231 234 235 244 245 248 251 262 275 278 278 278 279 280 279 279 279 278 276 275 274 276
220 219 223 225 232 240 248 265 267 267 273 277 278 278 278 278 277 275 274 271 272 276
231 232 226 236 240 247 257 265 270 278 281 282 281 281 279 277 274 272 269 269 273 272
229 228 234 242 253 262 273 281 281 281 281 280 279 277 275 273 273 270 270 270 269 270
222 226 235 245 256 271 278 281 285 285 284 284 280 276 271 270 269 269 270 269 271 272
225 233 246 260 271 274 280 287 291 293 290 286 280 274 271 267 266 268 270 271 269 266
230 240 251 263 270 278 285 289 289 290 290 283 276 269 265 263 265 266 267 265 270 269
234 243 255 267 277 284 289 289 285 286 293 298 283 279 267 260 258 259 254 262 262 262
240 247 258 267 276 283 283 278 279 282 288 293 288 283 282 250 245 239 241 236 236 241
241 246 255 268 279 287 288 283 281 281 291 287 284 279 273 227 217 218 221 225 226 228
244 249 260 271 280 286 286 282 278 286 279 277 274 274 257 221 208 210 214 225 233 228
250 254 262 270 276 284 281 275 273 280 272 267 263 262 240 211 208 212 215 222 233 235
253 259 265 269 274 279 275 270 271 269 262 257 253 241 225 215 218 224 226 232 239 245
Height
1514 1517 1519 1522 1522 1522 1523 1525 1525 1526 1526 1526 1525 1525 1525 1524 1523 1522 1521 1520 1519 1518
1510 1513 1514 1518 1520 1518 1520 1520 1519 1520 1519 1519 1518 1518 1518 1517 1516 1516 1515 1514 1513 1511
1506 1507 1511 1513 1512 1515 1515 1512 1514 1514 1513 1512 1511 1511 1512 1511 1510 1509 1509 1508 1507 1506
1506 1507 1507 1509 1507 1510 1511 1508 1509 1507 1507 1506 1506 1505 1506 1506 1504 1503 1502 1502 1502 1500
1502 1501 1505 1505 1505 1506 1506 1503 1503 1502 1501 1500 1500 1500 1500 1500 1499 1499 1498 1497 1496 1494
1497 1497 1500 1501 1501 1500 1501 1499 1497 1497 1496 1495 1496 1495 1494 1493 1492 1494 1493 1492 1490 1490
1493 1496 1496 1496 1496 1497 1496 1494 1492 1491 1491 1490 1490 1490 1489 1488 1487 1488 1488 1488 1486 1486
1490 1491 1492 1492 1492 1492 1490 1488 1488 1487 1487 1485 1485 1485 1484 1483 1482 1482 1483 1484 1483 1482
1486 1486 1487 1487 1487 1487 1485 1484 1484 1483 1482 1480 1480 1479 1478 1477 1478 1479 1478 1479 1480 1479
1481 1482 1483 1483 1483 1482 1481 1481 1480 1479 1477 1477 1476 1474 1472 1472 1474 1476 1477 1476 1476 1476
1477 1478 1478 1478 1477 1476 1476 1475 1474 1474 1473 1473 1472 1471 1470 1470 1471 1473 1474 1475 1475 1474
1472 1473 1473 1473 1472 1471 1470 1470 1469 1469 1469 1468 1468 1467 1467 1467 1468 1470 1471 1473 1473 1473
1468 1469 1469 1469 1468 1467 1466 1465 1465 1465 1465 1464 1464 1464 1464 1465 1467 1468 1469 1471 1471 1471
1464 1464 1465 1465 1464 1462 1461 1460 1460 1460 1461 1460 1461 1461 1462 1463 1465 1467 1467 1469 1470 1470